Radiation Dose measured at exhaust stack monitor of Fukushima Daiichi Nuclear Power Station
Date,Time,Unit 5 6 shared exhaust cylinders,Wind Direction,Wind Velocity(m/s)
2024/06/03,00:00,3.6,north-northwest,6.0
2024/06/03,00:10,3.6,north-northwest,6.1
2024/06/03,00:20,3.5,north-northwest,6.5
2024/06/03,00:30,3.6,north-northwest,6.0
2024/06/03,00:40,3.7,north-northwest,6.3
2024/06/03,00:50,3.8,north-northwest,5.6
2024/06/03,01:00,3.7,north,5.9
2024/06/03,01:10,3.7,north,6.3
2024/06/03,01:20,3.5,north,6.2
2024/06/03,01:30,3.5,north,6.4
2024/06/03,01:40,3.6,north-northwest,7.8
2024/06/03,01:50,3.9,north-northwest,6.6
2024/06/03,02:00,3.7,north-northwest,7.5
2024/06/03,02:10,3.6,north-northwest,5.9
2024/06/03,02:20,3.6,north-northwest,7.2
2024/06/03,02:30,3.5,north-northwest,6.7
2024/06/03,02:40,3.5,north-northwest,7.6
2024/06/03,02:50,3.6,north-northwest,7.7
2024/06/03,03:00,3.5,north-northwest,7.1
2024/06/03,03:10,3.6,north-northwest,8.2
2024/06/03,03:20,3.6,north-northwest,8.5
2024/06/03,03:30,3.6,north-northwest,7.6
2024/06/03,03:40,3.7,north-northwest,8.1
2024/06/03,03:50,3.6,north-northwest,8.3
2024/06/03,04:00,3.7,north-northwest,7.7
2024/06/03,04:10,3.7,north-northwest,8.3
2024/06/03,04:20,3.8,north-northwest,7.0
2024/06/03,04:30,3.5,north-northwest,7.0
2024/06/03,04:40,3.6,north-northwest,6.8
2024/06/03,04:50,3.9,north-northwest,6.6
2024/06/03,05:00,3.6,north-northwest,6.5
2024/06/03,05:10,3.6,north-northwest,5.9
2024/06/03,05:20,3.6,north-northwest,5.3
2024/06/03,05:30,3.5,north-northwest,5.3
2024/06/03,05:40,3.6,north-northwest,6.2
2024/06/03,05:50,3.6,north-northwest,5.6
2024/06/03,06:00,3.6,north-northwest,6.1
2024/06/03,06:10,3.5,north-northwest,7.1
2024/06/03,06:20,3.8,north-northwest,8.0
2024/06/03,06:30,3.8,north-northwest,7.5
2024/06/03,06:40,3.5,north-northwest,7.2
2024/06/03,06:50,3.7,north-northwest,5.6
2024/06/03,07:00,3.6,north-northwest,6.6
2024/06/03,07:10,3.6,north-northwest,7.1
2024/06/03,07:20,3.7,north-northwest,7.2
2024/06/03,07:30,3.4,north-northwest,6.9
2024/06/03,07:40,3.5,north-northwest,7.6
2024/06/03,07:50,3.7,north-northwest,7.3
2024/06/03,08:00,3.6,north-northwest,7.4
2024/06/03,08:10,3.7,north-northwest,6.2
2024/06/03,08:20,3.6,north-northwest,6.7
2024/06/03,08:30,3.6,north-northwest,6.8
2024/06/03,08:40,3.5,north-northwest,6.2
2024/06/03,08:50,3.6,north-northwest,6.7
2024/06/03,09:00,3.7,north-northwest,7.4
2024/06/03,09:10,3.6,north-northwest,8.2
2024/06/03,09:20,3.5,north-northwest,8.6
2024/06/03,09:30,3.6,north-northwest,9.0
2024/06/03,09:40,3.7,north-northwest,8.9
2024/06/03,09:50,3.5,north-northwest,8.2
2024/06/03,10:00,3.5,north-northwest,9.0
2024/06/03,10:10,3.6,north-northwest,8.7
2024/06/03,10:20,3.6,north-northwest,7.2
2024/06/03,10:30,3.8,north-northwest,7.4
2024/06/03,10:40,3.6,north-northwest,7.9
2024/06/03,10:50,3.6,north-northwest,7.1
2024/06/03,11:00,3.5,north-northwest,6.4
2024/06/03,11:10,3.8,north-northwest,6.7
2024/06/03,11:20,3.5,north-northwest,7.4
2024/06/03,11:30,3.6,north-northwest,6.7
2024/06/03,11:40,3.6,north-northwest,6.9
2024/06/03,11:50,3.7,north-northwest,6.7
2024/06/03,12:00,3.8,north,7.8
2024/06/03,12:10,3.5,north,9.0
2024/06/03,12:20,3.7,north,8.7
2024/06/03,12:30,3.5,north,8.2
2024/06/03,12:40,3.6,north,8.7
2024/06/03,12:50,3.7,north,8.5
2024/06/03,13:00,3.6,north-northeast,8.7
2024/06/03,13:10,3.7,north,9.5
2024/06/03,13:20,3.5,north-northeast,7.6
2024/06/03,13:30,3.6,north-northeast,7.6
2024/06/03,13:40,3.7,north,7.5
2024/06/03,13:50,3.6,north,9.6
2024/06/03,14:00,3.5,north,9.4
2024/06/03,14:10,3.8,north,9.0
2024/06/03,14:20,3.8,north,8.6
2024/06/03,14:30,3.5,north,9.3
2024/06/03,14:40,3.6,north,9.2
2024/06/03,14:50,3.7,north,9.2
2024/06/03,15:00,3.6,north,9.3
2024/06/03,15:10,3.5,north,10.3
2024/06/03,15:20,3.6,north,10.5
2024/06/03,15:30,3.6,north,11.0
2024/06/03,15:40,3.7,north,11.7
2024/06/03,15:50,3.5,north,11.7
2024/06/03,16:00,3.8,north,11.6
2024/06/03,16:10,3.6,north,11.1
2024/06/03,16:20,3.5,north,9.8
2024/06/03,16:30,3.6,north,10.0
2024/06/03,16:40,3.7,north,8.3
2024/06/03,16:50,3.7,north,8.6
2024/06/03,17:00,3.6,north,9.3
2024/06/03,17:10,3.7,north-northwest,8.5
2024/06/03,17:20,3.6,north-northwest,9.2
2024/06/03,17:30,3.7,north,7.6
2024/06/03,17:40,3.6,north,7.3
2024/06/03,17:50,3.7,north-northwest,7.9
2024/06/03,18:00,3.6,north,7.8
2024/06/03,18:10,3.6,north-northwest,8.5
2024/06/03,18:20,3.7,north-northwest,7.5
2024/06/03,18:30,3.7,north-northwest,6.3
2024/06/03,18:40,3.4,north-northwest,6.4
2024/06/03,18:50,3.5,north,6.6
2024/06/03,19:00,3.7,north,6.2
2024/06/03,19:10,3.7,north-northwest,6.9
2024/06/03,19:20,3.7,north,6.5
2024/06/03,19:30,3.8,north-northwest,6.5
2024/06/03,19:40,3.6,north-northwest,5.8
2024/06/03,19:50,3.5,north,5.9
2024/06/03,20:00,3.6,north-northwest,5.9
2024/06/03,20:10,3.6,north,6.5
2024/06/03,20:20,3.9,north-northwest,6.4
2024/06/03,20:30,3.5,north-northwest,7.0
2024/06/03,20:40,3.5,north-northwest,6.5
2024/06/03,20:50,3.6,north-northwest,6.6
2024/06/03,21:00,3.7,north-northwest,6.3
2024/06/03,21:10,3.6,north-northwest,6.0
2024/06/03,21:20,3.6,northwest,6.7
2024/06/03,21:30,3.6,north-northwest,6.8
2024/06/03,21:40,3.7,north-northwest,7.8
2024/06/03,21:50,3.4,north-northwest,7.0
2024/06/03,22:00,3.8,north-northwest,7.1
2024/06/03,22:10,3.5,north-northwest,7.4
2024/06/03,22:20,3.7,north-northwest,7.7
2024/06/03,22:30,3.7,north-northwest,7.6
2024/06/03,22:40,3.8,north-northwest,7.9
2024/06/03,22:50,3.5,north-northwest,8.0
2024/06/03,23:00,3.5,north-northwest,8.2
2024/06/03,23:10,3.7,north-northwest,6.9
2024/06/03,23:20,3.5,north-northwest,6.8
2024/06/03,23:30,3.8,north-northwest,8.4
2024/06/03,23:40,3.6,north-northwest,8.0
2024/06/03,23:50,3.6,north-northwest,7.3
